www.pogodaiklimat.ru

Архив погоды в Сторновее (Великобритания)

Время
(UTC), дата
13 7.06
14 7.06
15 7.06
16 7.06
17 7.06
18 7.06
19 7.06
20 7.06
21 7.06
22 7.06
23 7.06
00 8.06
01 8.06
02 8.06
03 8.06
04 8.06
05 8.06
06 8.06
07 8.06
08 8.06
09 8.06
10 8.06
11 8.06
12 8.06
13 8.06
14 8.06
15 8.06
16 8.06
17 8.06
18 8.06
19 8.06
20 8.06
21 8.06
22 8.06
23 8.06
00 9.06
01 9.06
02 9.06
03 9.06
04 9.06
05 9.06
06 9.06
07 9.06
08 9.06
09 9.06
10 9.06
11 9.06
12 9.06
13 9.06
14 9.06
15 9.06
16 9.06
17 9.06
18 9.06
19 9.06
20 9.06
21 9.06
22 9.06
23 9.06
00 10.06
01 10.06
02 10.06
03 10.06
04 10.06
05 10.06
06 10.06
07 10.06
08 10.06
09 10.06
10 10.06
11 10.06
12 10.06
13 10.06
14 10.06
15 10.06
16 10.06
17 10.06
18 10.06
19 10.06
20 10.06
21 10.06
22 10.06
23 10.06
00 11.06
01 11.06
02 11.06
03 11.06
04 11.06
05 11.06
06 11.06
07 11.06
08 11.06
09 11.06
10 11.06
11 11.06
12 11.06
13 11.06
14 11.06
15 11.06
16 11.06
17 11.06
18 11.06
19 11.06
20 11.06
21 11.06
22 11.06
23 11.06
00 12.06
01 12.06
02 12.06
03 12.06
04 12.06
05 12.06
06 12.06
07 12.06
08 12.06
09 12.06
10 12.06
11 12.06
12 12.06
13 12.06
14 12.06
15 12.06
16 12.06
17 12.06
18 12.06
19 12.06
20 12.06
21 12.06
22 12.06
23 12.06
00 13.06
01 13.06
02 13.06
03 13.06
04 13.06
05 13.06
06 13.06
07 13.06
08 13.06
09 13.06
10 13.06
11 13.06
12 13.06
13 13.06
14 13.06
15 13.06
16 13.06
17 13.06
18 13.06
19 13.06
20 13.06
21 13.06
22 13.06
23 13.06
00 14.06
01 14.06
02 14.06
03 14.06
04 14.06
05 14.06
06 14.06
07 14.06
08 14.06
09 14.06
10 14.06
11 14.06
Ветер
(напр.,м/с)
Видим. Явления Облачность Т
(С)
Тd
(С)
f
(%)
Тe
(С)
Тes
(С)
Комфортность P
(гПа)
Po
(гПа)
Тmin
(С)
Tmax
(С)
R
(мм)
R24
(мм)
S
(см)
З 9-12 {12} 23 км слаб. дождь 10/10 600 м +9.6 +6.1 79 +5 +5 тепло 1005.9 1004.1 0.2
З 9-14 {17} 5000 м дождь 10/10 300 м +7.7 +5.7 87 +2 +2 тепло 1005.8 1003.9 1
ЮЗ 9-14 {14} 7000 м слаб. дождь 10/10 900 м +8.7 +6.0 83 +4 +4 прохладно 1004.9 1003.1
З 10-14 {17} 28 км слаб. дождь 10/10 720 м +8.9 +6.6 85 +4 +4 по сезону 1004.1 1002.3 1
З 10-13 {16} 28 км слаб. дождь 10/10 500 м +9.1 +6.5 84 +4 +4 тепло 1003.5 1001.7 0.6
З 9-13 {17} 17 км дождь 10/10 360 м +7.8 +6.1 89 +3 +3 прохладно 1003.2 1001.3 +10.9 0.8
З 12-19 {19} 30 км дождь 10/10 750 м +7.9 +4.0 76 +2 +2 по сезону 1002.9 1001.1
З 9-14 {16} 23 км в посл. час дождь 9/9 720 м +8.1 +5.0 81 +3 +3 тепло 1002.8 1000.9 0.2
З 11-14 {16} 22 км дождь 9/9 360 м +7.7 +5.2 84 +2 +2 прохладно 1003.3 1001.5 +10.9 6
СЗ 9-13 {15} 30 км осадки 10/10 660 м +7.4 +4.5 82 +2 +2 по сезону 1004.2 1002.4
СЗ 11-18 {18} 2100 м слаб. дождь 8/8 750 м +6.7 +4.0 83 +1 +1 тепло 1005.1 1003.3 0.2
СЗ 8-10 {18} 30 км слаб. дождь 1/1 840 м +6.5 +4.4 86 +1 +1 по сезону 1005.4 1003.6 0.4
З 5-7 {10} 30 км в посл. час дождь 3/3 960 м +6.5 +3.7 82 +3 +3 тепло 1006.0 1004.2
З 6-7 {8} 30 км 5/5 800 м +6.6 +3.8 82 +2 +2 тепло 1005.9 1004.1
З 5-6 {13} 21 км слаб. дождь 10/10 720 м +6.0 +4.2 88 +2 +2 по сезону 1005.8 1004.0 0.4
З 5-6 {12} 40 км в посл. час дождь 10/10 800 м +5.6 +3.9 89 +1 +1 по сезону 1005.5 1003.7 1
З 7-9 {11} 30 км сильн. дождь 10/10 360 м +6.4 +4.6 88 +1 +1 тепло 1005.3 1003.5 0.8
СЗ 9-12 {16} 29 км в посл. час дождь 10/10 700 м +7.1 +4.5 84 +2 +2 по сезону 1005.5 1003.7 +5.5 +9.1 0.2 9.4
СЗ 10-13 {17} 27 км в посл. час дождь 10/10 700 м +8.2 +4.9 80 +3 +3 по сезону 1006.0 1004.2
СЗ 9-13 {17} 45 км слаб. дождь 10/10 330 м +7.2 +4.4 82 +2 +2 тепло 1006.8 1005.0 2
СЗ 11-14 {14} 9000 м в посл. час дождь 10/10 700 м +9.2 +4.7 73 +4 +4 по сезону 1007.1 1005.3 +9.6 5
СЗ 11-16 {16} 28 км в посл. час дождь 10/10 600 м +9.9 +5.2 73 +5 +5 тепло 1007.7 1005.9
СЗ 10-13 {16} 30 км в посл. час дождь 9/9 720 м +10.1 +5.5 73 +6 +6 тепло 1008.2 1006.3
СЗ 11-15 {15} 45 км 5/5 750 м +11.1 +3.4 59 +7 +7 по сезону 1008.7 1006.9
СЗ 7-9 {13} 24 км дождь 10/10 720 м +8.8 +5.2 78 +5 +5 тепло 1008.9 1007.1
З 9-12 {13} 29 км в посл. час дождь 10/10 750 м +10.1 +5.1 71 +6 +6 тепло 1008.8 1007.0
З 4-6 {13} 16 км слаб. дождь 10/10 720 м +9.2 +5.5 78 +6 +6 по сезону 1008.6 1006.8 0.2
З 5-7 {11} 12 км слаб. дождь 10/10 450 м +7.5 +5.8 89 +3 +3 по сезону 1008.3 1006.5 0.8
З 4-6 {8} 17 км слаб. дождь 10/10 1080 м +7.8 +6.1 89 +4 +4 тепло 1007.7 1005.8 0.8
З 4-6 {7} 5000 м слаб. дождь 10/10 450 м +8.0 +6.6 91 +5 +5 по сезону 1007.1 1005.3 +11.7 0.2
З 6-9 {9} 8000 м слаб. дождь 10/10 960 м +8.2 +6.3 88 +4 +4 по сезону 1006.7 1004.9 1
З 5-8 {8} 23 км в посл. час дождь 10/10 1500 м +8.2 +6.1 87 +4 +4 тепло 1006.7 1004.9
З 5-7 {8} 21 км слаб. дождь 10/10 630 м +7.8 +5.9 88 +4 +4 по сезону 1007.0 1005.2 +11.7 3
СЗ 7-9 {10} 35 км в посл. час дождь 10/10 840 м +7.7 +5.4 85 +3 +3 по сезону 1007.3 1005.5 0.4
З 5-6 {10} 29 км 6/6 800 м +7.3 +5.0 85 +3 +3 тепло 1007.4 1005.5
СЗ 5-7 {8} 35 км слаб. дождь 10/10 450 м +7.0 +5.5 90 +3 +3 по сезону 1007.6 1005.7 0.4
СЗ 4-4 {5} 30 км в посл. час дождь 10/10 1170 м +6.9 +5.7 92 +3 +3 тепло 1007.9 1006.1
СЗ 4-5 {5} 22 км 10/10 660 м +6.7 +5.7 93 +3 +3 тепло 1008.1 1006.2
СЗ 4-6 {7} 16 км слаб. дождь 9/9 500 м +6.2 +5.0 92 +2 +2 по сезону 1008.1 1006.2
СЗ 4-5 {11} 29 км в посл. час дождь 4/4 800 м +5.8 +4.3 90 +2 +2 тепло 1008.1 1006.3 0.4
СЗ 5-6 {6} 45 км 1/1 1380 м +6.2 +3.5 83 +2 +2 тепло 1008.3 1006.4
СЗ 4-6 {9} 30 км в посл. час дождь 10/10 840 м +8.0 +5.3 83 +5 +5 по сезону 1008.4 1006.6 +5.7 +8.4 6.0
СЗ 7-9 {9} 35 км 4/4 1200 м +9.4 +3.5 67 +6 +6 тепло 1008.5 1006.7
СЗ 8-10 {10} 40 км 10/10 960 м +9.6 +3.6 66 +6 +6 тепло 1008.8 1006.9
СЗ 8-11 {11} 30 км 10/10 600 м +9.8 +5.1 73 +6 +6 по сезону 1008.9 1007.0 +10.5 1
СЗ 8-10 {12} 35 км 10/10 630 м +10.7 +4.6 66 +7 +7 тепло 1009.1 1007.2
СЗ 8-10 {11} 35 км 10/10 630 м +10.9 +5.5 69 +7 +7 тепло 1009.2 1007.4
СЗ 8-10 {12} 6000 м слаб. дождь 10/10 700 м +9.8 +7.7 87 +6 +6 по сезону 1009.3 1007.5 0.2
СЗ 9-12 {12} 3800 м слаб. дождь 10/10 420 м +10.3 +7.5 83 +6 +6 тепло 1009.4 1007.6 0.4
СЗ 4-6 {10} 30 км в посл. час дождь 10/10 1000 м +10.4 +8.4 87 +8 +8 тепло 1009.4 1007.6 1
С 6-9 {9} 23 км 10/10 700 м +10.8 +7.0 77 +8 +8 тепло 1009.4 1007.6
СЗ 7-10 {10} 22 км в посл. час дождь 10/10 870 м +11.2 +5.9 70 +8 +8 тепло 1009.6 1007.7
С 7-9 {10} 20 км 10/10 1470 м +11.4 +6.2 70 +8 +8 тепло 1009.9 1008.1
СЗ 8-10 {10} 12 км слаб. дождь 10/10 700 м +10.8 +6.2 73 +7 +7 тепло 1010.3 1008.5 +12.5
7-9 {11} 13 км в посл. час дождь 10/10 1500 м +9.9 +7.0 82 +6 +6 тепло 1010.9 1009.1 0.2
С 8-10 {10} 15 км 10/10 1230 м +9.8 +6.1 78 +6 +6 тепло 1011.3 1009.5
С 7-9 {10} 16 км в посл. час дождь 10/10 1140 м +9.3 +6.2 81 +5 +5 по сезону 1011.8 1010.0 +12.5 2
С 6-8 {8} 13 км в посл. час дождь 10/10 630 м +9.2 +6.4 83 +5 +5 тепло 1012.5 1010.7
С 7-9 {9} 17 км 6/6 800 м +8.8 +5.7 81 +5 +5 тепло 1013.0 1011.2
С 4-5 {8} 14 км 10/10 660 м +8.4 +5.4 81 +5 +5 по сезону 1013.4 1011.6
С 6-8 {8} 17 км 10/10 1050 м +8.5 +5.2 80 +5 +5 по сезону 1013.7 1011.8
СЗ 6-9 {9} 27 км 10/10 1080 м +8.6 +5.0 78 +5 +5 тепло 1013.9 1012.0
СЗ 6-8 {12} 13 км в посл. час дождь 10/10 720 м +8.2 +6.2 87 +4 +4 прохладно 1014.0 1012.2 0.4
С 7-9 {10} 13 км 10/10 800 м +8.2 +6.1 87 +4 +4 по сезону 1014.0 1012.1
СЗ 8-11 {11} 14 км в посл. час морось 10/10 700 м +8.2 +6.0 86 +3 +3 по сезону 1014.3 1012.4
С 8-10 {12} 17 км 10/10 900 м +8.8 +5.7 81 +4 +4 прохладно 1014.5 1012.7 +7.8 +10.8 2.2
СЗ 8-11 {12} 14 км слаб. дождь 10/10 570 м +8.1 +6.0 87 +3 +3 по сезону 1015.2 1013.3 0.2
С 11-14 {14} 19 км в посл. час дождь 10/10 630 м +9.2 +5.2 76 +4 +4 по сезону 1015.4 1013.6
СЗ 9-12 {16} 9000 м слаб. дождь 10/10 540 м +8.4 +6.3 87 +3 +3 холодно 1016.0 1014.2 +9.4 1
СЗ 9-12 {13} 12 км слаб. дождь 10/10 660 м +9.0 +6.9 87 +4 +4 по сезону 1016.0 1014.2 0.8
С 9-12 {14} 8000 м слаб. дождь 10/10 660 м +8.8 +6.5 85 +4 +4 по сезону 1016.5 1014.6
СЗ 7-11 {12} 2700 м дождь 10/10 300 м +8.7 +6.9 88 +4 +4 холодно 1016.7 1014.9 0.6
С 7-10 {12} 12 км слаб. дождь 10/10 630 м +9.5 +7.7 89 +5 +5 по сезону 1016.7 1014.9 0.8
СЗ 8-10 {12} 16 км в посл. час дождь 10/10 360 м +10.5 +8.4 87 +7 +7 по сезону 1016.7 1014.9 0.2
С 11-14 {14} 19 км 10/10 660 м +10.6 +5.8 72 +6 +6 прохладно 1017.0 1015.2
СЗ 9-12 {14} 16 км 10/10 570 м +9.6 +5.7 77 +5 +5 по сезону 1017.3 1015.4
С 9-11 {14} 21 км слаб. дождь 10/10 360 м +8.9 +6.6 85 +4 +4 по сезону 1017.6 1015.7
С 7-10 {13} 17 км в посл. час дождь 10/10 700 м +8.7 +5.9 83 +4 +4 холодно 1017.9 1016.1 +11.0 0.4
С 8-10 {11} 13 км 10/10 1020 м +8.5 +4.9 78 +4 +4 прохладно 1018.3 1016.4
С 8-10 {10} 14 км 10/10 900 м +8.3 +4.1 75 +4 +4 по сезону 1018.7 1016.9
С 7-10 {10} 19 км 10/10 720 м +8.1 +4.3 77 +4 +4 прохладно 1019.0 1017.2 +11.0 3
С 7-9 {10} 19 км в посл. час дождь 10/10 930 м +7.8 +4.4 79 +3 +3 по сезону 1019.3 1017.4
СЗ 5-6 {10} 19 км в посл. час морось 10/10 800 м +7.6 +3.9 77 +4 +4 по сезону 1019.3 1017.4
СЗ 4-6 {7} 18 км 10/10 1200 м +7.4 +4.1 80 +4 +4 прохладно 1019.4 1017.5
С 4-5 {6} 16 км 9/9 870 м +6.5 +3.6 82 +3 +3 по сезону 1019.6 1017.8
СЗ 4-4 {7} 45 км 1/1 1410 м +4.3 +2.5 88 0 0 по сезону 1019.6 1017.7
СЗ 4-5 {5} 35 км 10/10 1320 м +5.0 +3.8 92 +1 +1 холодно 1019.6 1017.7
СЗ 4-5 {5} 35 км 1/1 1470 м +4.8 +3.8 93 +1 +1 прохладно 1019.9 1018.0
СЗ 4-4 {6} 40 км 10/10 660 м +6.7 +5.3 91 +3 +3 по сезону 1020.2 1018.3
СЗ 6-8 {10} 45 км 10/10 1050 м +8.0 +5.4 84 +4 +4 прохладно 1020.5 1018.7 +4.2 +8.9 3.4
С 7-8 {9} 24 км 10/10 1110 м +8.7 +5.0 78 +5 +5 по сезону 1021.1 1019.2
С 7-9 {9} 9000 м слаб. морось 10/10 480 м +8.3 +5.9 85 +4 +4 тепло 1021.4 1019.6
С 8-9 {9} 19 км в посл. час морось 10/10 700 м +9.1 +4.6 73 +5 +5 прохладно 1021.6 1019.8 +9.4
С 6-8 {9} 23 км 10/10 800 м +9.6 +4.2 69 +6 +6 по сезону 1021.9 1020.0
С 5-7 {9} 17 км 10/10 600 м +9.0 +5.0 76 +6 +6 тепло 1022.1 1020.2
С 6-8 {9} 21 км 10/10 630 м +9.0 +4.4 73 +5 +5 холодно 1022.3 1020.5
С 7-9 {10} 20 км 10/10 800 м +9.5 +3.4 66 +6 +6 по сезону 1022.6 1020.8
С 7-8 {9} 24 км 10/10 930 м +9.6 +3.7 67 +6 +6 по сезону 1022.7 1020.9
С 7-8 {8} 21 км 10/10 800 м +9.9 +3.7 65 +6 +6 прохладно 1022.8 1020.9
С 7-9 {10} 21 км 10/10 900 м +9.6 +3.8 67 +6 +6 по сезону 1023.0 1021.1
С 6-7 {8} 23 км 10/10 700 м +9.3 +4.2 70 +6 +6 по сезону 1022.9 1021.1
С 6-8 {9} 22 км 10/10 800 м +9.2 +3.5 67 +6 +6 прохладно 1023.1 1021.3 +10.5
С 5-7 {8} 22 км 10/10 700 м +8.9 +3.5 69 +6 +6 по сезону 1023.2 1021.3
С 5-6 {7} 20 км 10/10 720 м +8.5 +4.0 73 +5 +5 по сезону 1023.2 1021.4
С 4-4 {6} 16 км 10/10 700 м +8.4 +4.3 75 +6 +6 по сезону 1023.5 1021.6 +10.5
СЗ 3-4 {5} 18 км 10/10 750 м +8.1 +4.8 80 +6 +6 по сезону 1023.4 1021.6
С 3-4 {4} 17 км дымка 10/10 800 м +8.0 +4.2 77 +5 +5 тепло 1023.3 1021.4
СЗ 2-2 {5} 30 км 10/10 900 м +7.4 +4.3 81 +5 +5 по сезону 1023.2 1021.4
З 3-3 {3} 45 км 10/10 1110 м +7.2 +3.8 79 +5 +5 по сезону 1022.8 1020.9
З 2-3 {3} 35 км 10/10 1080 м +6.9 +3.8 81 +5 +5 тепло 1022.6 1020.7
З 3-3 {3} 35 км 10/10 1140 м +6.8 +3.9 82 +4 +4 прохладно 1022.1 1020.2
З 4-5 {5} 35 км 10/10 840 м +6.9 +4.1 82 +4 +4 по сезону 1021.7 1019.8
З 3-4 {4} 35 км 10/10 1300 м +7.0 +4.4 84 +4 +4 тепло 1021.4 1019.5
З 3-4 {5} 35 км 10/10 1170 м +7.7 +5.1 84 +5 +5 прохладно 1021.2 1019.3 +6.8 +9.3
З 3-4 {4} 40 км 10/10 1320 м +9.0 +5.0 76 +7 +7 по сезону 1021.1 1019.3
З 4-5 {6} 35 км 10/10 1300 м +10.4 +3.6 63 +8 +8 тепло 1020.7 1018.9
З 4-6 {7} 35 км 10/10 1140 м +11.5 +1.8 51 +10 +10 по сезону 1020.5 1018.7 +11.7
СЗ 4-5 {5} 30 км 1/1 1440 м +12.4 +3.0 53 +11 +19 тепло 1020.1 1018.3
З 2-4 {6} 35 км 10/10 1110 м +11.9 +3.1 55 +11 +11 тепло 1019.7 1017.9
СЗ 2-3 {4} 40 км 9/9 1140 м +11.9 +3.2 55 +11 +13 по сезону 1019.3 1017.5
Ю 4-5 {5} 45 км 10/10 1200 м +11.2 +5.6 68 +9 +9 по сезону 1019.1 1017.2
С 4-5 {6} 26 км 10/10 1020 м +11.5 +5.0 64 +10 +10 тепло 1018.6 1016.8
В 3-4 {5} 35 км 9/9 1000 м +11.3 +5.4 67 +10 +11 по сезону 1018.0 1016.2
В 3-4 {4} 35 км 10/10 960 м +11.0 +5.4 68 +10 +10 тепло 1017.4 1015.6
ЮВ 2-3 {5} 35 км 10/10 1230 м +11.4 +4.9 64 +11 +11 тепло 1016.8 1015.0
Ю 2-3 {3} 40 км 10/10 1110 м +10.9 +5.4 69 +10 +10 по сезону 1016.5 1014.7 +13.0
СВ 2-4 {4} 21 км 10/10 1080 м +10.9 +5.9 71 +10 +10 тепло 1015.9 1014.1
СВ 2-4 {5} 26 км 10/10 870 м +10.5 +6.2 75 +9 +9 тепло 1015.4 1013.6
ЮЗ 3-3 {4} 30 км ясно +7.6 +4.5 81 +5 +5 прохладно 1015.0 1013.1 +13.0
ЮЗ 2-3 {4} 40 км ясно +7.0 +4.5 84 +5 +5 по сезону 1014.4 1012.6
Ю 3-3 {4} 30 км ясно +6.9 +4.4 84 +4 +4 по сезону 1013.7 1011.9
СЗ 1-2 {3} 30 км ясно +4.7 +3.0 89 +3 +3 прохладно 1013.1 1011.2
С 1-1 {2} 30 км ясно +3.9 +2.7 92 +2 +2 по сезону 1012.3 1010.4
С 1-1 {2} 27 км 10/10 +4.3 +3.2 93 +4 +4 тепло 1011.4 1009.6
ЮВ 2-3 {3} 30 км 3/3 +4.1 +3.1 93 +2 +2 холодно 1010.7 1008.8
ЮВ 4-5 {5} 40 км 10/10 +8.1 +6.2 88 +5 +5 по сезону 1009.8 1008.0
ЮВ 3-4 {6} 45 км 10/10 1260 м +8.3 +5.9 85 +6 +6 тепло 1009.2 1007.3
ЮВ 4-5 {5} 40 км 10/10 1230 м +9.2 +5.8 79 +6 +6 по сезону 1008.5 1006.6 +3.7 +11.3
ЮВ 4-6 {6} 40 км 10/10 1350 м +9.9 +6.1 77 +7 +7 по сезону 1007.9 1006.0
ЮВ 6-8 {8} 40 км 10/10 1440 м +10.6 +5.9 73 +8 +8 тепло 1007.2 1005.4
В 5-7 {8} 40 км 10/10 1320 м +11.0 +5.8 70 +8 +8 по сезону 1006.7 1004.9 +11.0
В 6-9 {9} 45 км 10/10 1500 м +13.5 +7.7 68 +11 +11 тепло 1005.9 1004.1
В 7-9 {10} 40 км 10/10 1470 м +12.0 +6.4 69 +9 +9 тепло 1005.2 1003.4
В 6-8 {8} 55 км 10/10 1500 м +13.7 +6.0 60 +12 +12 по сезону 1004.5 1002.7
СВ 5-8 {8} 45 км 10/10 1500 м +13.2 +6.9 66 +11 +11 тепло 1003.6 1001.8
СВ 6-9 {9} 30 км 10/10 1500 м +12.2 +6.6 69 +10 +10 тепло 1003.0 1001.2
СВ 5-6 {8} 30 км 10/10 1500 м +12.7 +8.8 77 +11 +11 по сезону 1002.1 1000.3
СВ 5-6 {7} 23 км 10/10 1500 м +13.2 +9.8 80 +11 +11 тепло 1001.0 999.2
СВ 6-7 {7} 25 км 10/10 2000 м +12.8 +9.7 81 +10 +10 тепло 1000.3 998.5
СВ 4-5 {7} 14 км 10/10 2000 м +12.4 +10.1 86 +11 +11 по сезону 999.4 997.6 +14.8
С 5-5 {5} 10 км 10/10 2000 м +12.0 +10.1 88 +10 +10 тепло 998.3 996.5
Ю 2-3 {5} 22 км 10/10 2000 м +12.9 +9.6 80 +12 +12 тепло 997.3 995.5
В 7-9 {9} 26 км 10/10 1500 м +12.9 +8.3 74 +10 +10 по сезону 996.8 995.1 +14.8
ЮВ 7-9 {9} 40 км 10/10 1500 м +12.3 +8.1 76 +10 +10 тепло 996.4 994.6
В 6-8 {9} 45 км 10/10 2000 м +11.8 +8.3 79 +9 +9 тепло 995.9 994.1
В 5-7 {9} 35 км 10/10 1500 м +11.4 +8.6 83 +9 +9 по сезону 995.1 993.3
В 8-11 {11} 13 км слаб. дождь 10/10 1500 м +10.5 +8.7 89 +7 +7 тепло 994.4 992.6
В 7-10 {12} 13 км слаб. дождь 10/10 1500 м +10.3 +9.0 92 +6 +6 тепло 993.8 992.0 0.2
В 9-11 {11} 8000 м слаб. дождь 10/10 1500 м +10.1 +8.9 92 +6 +6 по сезону 993.2 991.4 0.8
В 7-10 {11} 11 км слаб. дождь 10/10 870 м +10.1 +9.0 93 +6 +6 по сезону 992.6 990.8 1
В 8-10 {11} 6000 м слаб. дождь 10/10 210 м +10.0 +9.1 94 +6 +6 тепло 992.0 990.2 1
В 8-10 {11} 3900 м слаб. дождь 10/10 120 м +10.0 +9.2 95 +6 +6 по сезону 991.5 989.7 +9.9 +13.1 2 5.4
В 7-10 {11} 2600 м слаб. дождь 10/10 120 м +10.2 +9.5 95 +6 +6 по сезону 991.1 989.3 1
В 7-8 {9} 20 км в посл. час морось 10/10 150 м +10.5 +9.9 96 +7 +7 тепло 990.9 989.1 0.2
В 5-7 {8} 40 км слаб. дождь 10/10 210 м +11.6 +10.7 94 +9 +9 по сезону 990.8 989.1 +12.9 7
ЮВ 4-5 {7} 2600 м слаб. дождь 10/10 60 м +11.4 +10.6 95 +9 +9 тепло 991.1 989.3
ЮВ 6-7 {8} 35 км слаб. дождь 10/10 300 м +11.7 +10.9 95 +9 +9 тепло 991.2 989.4 0.2
Местоположение метеостанции Сторновей (Великобритания): широта 58.22 долгота -6.32 высота над уровнем моря 15 м.
В архиве по умолчанию представлена погода в Сторновее за последнюю неделю. Архивные данные за месяц целиком и за предыдущие месяцы, начиная с января 2011 года, Вы можете получить, выбрав интересующий диапазон дат из раскрывающегося списка и нажав кнопку "Найти!".
*Определитесь, кто Вы:
Внимание! Время в таблицах - всемирное. Для получения местного времени необходимо прибавить поправку, которая равна 0 ч.
Некоторые строки с данными для отдельных станций могут быть выделены курсивом. Это означает, что фактические данные отсутствуют по различным причинам, а приведенные значения являются расчетными модельными данными для данного пункта наблюдений.
Смотрите также архив погоды в соседних городах и на ближайших метеорологических станциях:
Партнеры нашего сайта:      
Пояснения к столбцам:
  • Ветер - указаны скорость ветра в м/с - средняя за 10 мин, порывы в срок и между сроками (в фигурных скобках) и направление, откуда дует ветер: С - северный,
  • СВ - северо-восточный, В - восточный, ЮВ - юго-восточный, Ю - южный, ЮЗ - юго-западный, З - западный, СЗ - северо-западный.
  • Видимость - горизонтальная дальность видимости в метрах или километрах. При видимости от 1 до 10 км при отсутствии осадков обычно наблюдается дымка, при ухудшении видимости до 1 км и менее - туман. В сухую погоду видимость может ухудшаться дымом, пылью или мглою.
  • Явления - указаны атмосферные явления, наблюдавшиеся в срок или в последний час перед сроком; фигурными скобками обозначены явления, наблюдавшиеся между сроками (за 1-3 часа до срока); квадратными скобками обозначены град или гололедные отложения с указанием их диаметра в мм.
  • Облачность - указаны через наклонную черту общая и нижняя облачность в баллах и высота нижней границы облаков в метрах; квадратными скобками обозначены формы облаков: Ci - перистые, Cs - перисто-слоистые, Cc - перисто-кучевые, Ac - высококучевые, As - высокослоистые, Sc - слоисто-кучевые, Ns - слоисто-дождевые, Cu - кучевые, Cb - кучево-дождевые. Подробнее классификацию облаков см. в Атласе облаков (PDF).
  • T - Температура воздуха - температура, измеренная на высоте 2 м над землей.
  • Td - Температура точки росы - температура, при понижении до которой содержащийся в воздухе водяной пар достигнет насыщения.
  • f - Относительная влажность воздуха - влажноcть воздуха, измеренная на высоте 2 м над землей.
  • Te - Эффективная температура - температура, которую ощущает одетый по сезону человек в тени. Характеристика душности погоды. При расчете учитывается влияние влажности воздуха и скорости ветра на теплоощущения человека.
  • Tes - Эффективная температура на солнце - температура, которую ощущает человек, с поправкой на солнечный нагрев. Характеристика знойности погоды. Зависит от высоты солнца над горизонтом, облачности и скорости ветра. Ночью, в пасмурную погоду, а также при ветре 12 м/с и более поправка равна нулю.
  • P - Атмосферное давление - приведенное к уровню моря атмосферное давление.
  • Po - Атмосферное давление - измеренное на уровне метеостанции атмосферное давление.
  • Tmin - Минимальная температура - минимум температуры воздуха на высоте 2 м над землей.
  • Tmax - Максимальная температура - максимум температуры воздуха на высоте 2 м над землей.
  • R - Количество осадков - Количество выпавших осадков за период времени, мм. При наведении курсора мыши на число - период времени, за который выпало указанное количество осадков.
  • R24 - Количество осадков - Количество выпавших осадков за 24 часа, мм.
  • S - Снежный покров - Высота снежного покрова, см. При наведении курсора мыши на число - состояние снежного покрова и степень покрытия местности в баллах.